TimePST,TemperatureF,Dew PointF,Humidity,Sea Level PressureIn,VisibilityMPH,Wind Direction,Wind SpeedMPH,Gust SpeedMPH,PrecipitationIn,Events,Conditions,WindDirDegrees,DateUTC
12:15 AM,38.7,27.0,63,29.77,10.0,SW,28.8,35.7,N/A,,Overcast,220,2014-01-10 08:15:00
12:35 AM,38.7,27.3,64,29.77,10.0,SW,25.3,35.7,N/A,,Overcast,230,2014-01-10 08:35:00
12:55 AM,38.5,27.7,65,29.78,10.0,SW,23.0,32.2,N/A,,Overcast,230,2014-01-10 08:55:00
1:15 AM,38.5,27.7,65,29.78,10.0,SW,20.7,26.5,N/A,,Overcast,220,2014-01-10 09:15:00
1:35 AM,38.5,27.5,65,29.80,10.0,WSW,18.4,25.3,N/A,,Overcast,240,2014-01-10 09:35:00
1:55 AM,38.5,27.7,65,29.80,10.0,SW,19.6,24.2,N/A,,Overcast,230,2014-01-10 09:55:00
2:15 AM,39.2,28.8,66,29.82,10.0,SW,18.4,-,N/A,,Overcast,230,2014-01-10 10:15:00
2:35 AM,39.4,29.1,67,29.83,10.0,WSW,16.1,-,N/A,,Overcast,240,2014-01-10 10:35:00
2:55 AM,39.7,29.3,66,29.82,10.0,WSW,17.3,26.5,N/A,,Mostly Cloudy,240,2014-01-10 10:55:00
3:15 AM,40.1,29.3,65,29.83,10.0,WSW,18.4,21.9,N/A,,Mostly Cloudy,240,2014-01-10 11:15:00
3:35 AM,40.3,29.1,64,29.84,10.0,WSW,19.6,31.1,N/A,,Overcast,240,2014-01-10 11:35:00
3:55 AM,40.3,29.1,64,29.84,10.0,WSW,17.3,26.5,N/A,,Overcast,240,2014-01-10 11:55:00
4:15 AM,39.9,28.9,65,29.85,10.0,West,20.7,26.5,N/A,,Overcast,260,2014-01-10 12:15:00
4:35 AM,40.6,28.9,63,29.86,10.0,WSW,16.1,29.9,N/A,,Overcast,240,2014-01-10 12:35:00
4:55 AM,40.5,28.8,63,29.86,10.0,WSW,18.4,28.8,N/A,,Overcast,240,2014-01-10 12:55:00
5:15 AM,40.3,28.6,63,29.87,10.0,WSW,18.4,-,N/A,,Mostly Cloudy,240,2014-01-10 13:15:00
5:35 AM,40.3,28.4,63,29.87,10.0,WSW,18.4,-,N/A,,Mostly Cloudy,240,2014-01-10 13:35:00
5:55 AM,40.3,28.0,62,29.88,10.0,WSW,15.0,21.9,N/A,,Overcast,250,2014-01-10 13:55:00
6:15 AM,40.1,28.2,63,29.87,10.0,WSW,16.1,-,N/A,,Mostly Cloudy,240,2014-01-10 14:15:00
6:35 AM,39.7,28.2,63,29.88,10.0,SW,17.3,24.2,N/A,,Scattered Clouds,230,2014-01-10 14:35:00
6:55 AM,39.9,28.4,63,29.89,10.0,SW,17.3,21.9,N/A,,Mostly Cloudy,230,2014-01-10 14:55:00
7:15 AM,40.1,28.4,63,29.91,10.0,WSW,16.1,23.0,N/A,,Overcast,240,2014-01-10 15:15:00
7:35 AM,40.3,28.2,62,29.91,10.0,SW,17.3,-,N/A,,Overcast,230,2014-01-10 15:35:00
7:55 AM,40.1,28.2,63,29.92,10.0,WSW,17.3,-,N/A,,Overcast,240,2014-01-10 15:55:00
8:15 AM,40.1,28.4,63,29.93,10.0,WSW,17.3,-,N/A,,Mostly Cloudy,240,2014-01-10 16:15:00
8:35 AM,40.5,28.6,63,29.94,10.0,SW,16.1,-,N/A,,Mostly Cloudy,230,2014-01-10 16:35:00
9:00 AM,40.8,28.2,61,29.96,10.0,SW,17.3,-,N/A,,Mostly Cloudy,230,2014-01-10 17:00:00
9:15 AM,41.0,28.6,61,29.96,10.0,SW,18.4,-,N/A,,Overcast,230,2014-01-10 17:15:00
9:35 AM,41.4,28.8,61,29.97,10.0,SW,17.3,25.3,N/A,,Overcast,230,2014-01-10 17:35:00
9:55 AM,41.5,28.9,61,29.97,10.0,WSW,19.6,27.6,N/A,,Mostly Cloudy,240,2014-01-10 17:55:00
10:15 AM,41.9,29.1,61,29.98,10.0,WSW,16.1,21.9,N/A,,Scattered Clouds,240,2014-01-10 18:15:00
10:35 AM,42.4,29.1,59,29.98,10.0,WSW,17.3,25.3,N/A,,Mostly Cloudy,240,2014-01-10 18:35:00
10:55 AM,43.0,28.9,58,29.98,10.0,WSW,20.7,25.3,N/A,,Mostly Cloudy,240,2014-01-10 18:55:00
11:15 AM,43.0,28.6,57,29.98,10.0,WSW,19.6,26.5,N/A,,Scattered Clouds,240,2014-01-10 19:15:00
11:35 AM,42.8,28.2,56,29.98,10.0,WSW,19.6,26.5,N/A,,Scattered Clouds,240,2014-01-10 19:35:00
11:55 AM,43.0,27.7,55,29.98,10.0,WSW,15.0,25.3,N/A,,Scattered Clouds,240,2014-01-10 19:55:00
12:15 PM,43.3,27.5,54,29.98,10.0,WSW,19.6,26.5,N/A,,Scattered Clouds,240,2014-01-10 20:15:00
12:35 PM,43.3,27.1,53,29.98,10.0,WSW,21.9,26.5,N/A,,Mostly Cloudy,240,2014-01-10 20:35:00
12:55 PM,42.8,27.5,55,29.98,10.0,WSW,18.4,24.2,N/A,,Overcast,240,2014-01-10 20:55:00
1:15 PM,42.8,27.5,55,29.98,10.0,WSW,19.6,24.2,N/A,,Overcast,240,2014-01-10 21:15:00
1:35 PM,42.4,27.5,56,29.99,10.0,WSW,18.4,-,N/A,,Overcast,240,2014-01-10 21:35:00
1:55 PM,42.8,27.7,55,29.99,10.0,WSW,21.9,-,N/A,,Overcast,240,2014-01-10 21:55:00
2:15 PM,42.8,27.5,55,29.99,10.0,WSW,23.0,32.2,N/A,,Overcast,240,2014-01-10 22:15:00
2:35 PM,42.4,27.3,55,30.00,10.0,WSW,16.1,27.6,N/A,,Overcast,250,2014-01-10 22:35:00
2:55 PM,42.1,27.3,56,30.00,10.0,SW,16.1,23.0,N/A,,Overcast,230,2014-01-10 22:55:00
3:15 PM,41.5,27.3,57,30.00,10.0,SW,15.0,23.0,N/A,,Overcast,230,2014-01-10 23:15:00
3:35 PM,41.2,27.9,59,30.02,10.0,WSW,16.1,24.2,N/A,,Overcast,240,2014-01-10 23:35:00
3:55 PM,40.8,28.0,60,30.01,10.0,SW,19.6,24.2,N/A,,Overcast,230,2014-01-10 23:55:00
4:15 PM,40.1,28.4,63,30.01,10.0,SW,17.3,28.8,N/A,,Overcast,230,2014-01-11 00:15:00
4:35 PM,39.7,28.9,65,30.00,10.0,SW,21.9,28.8,N/A,,Overcast,220,2014-01-11 00:35:00
4:55 PM,39.0,30.0,70,30.02,10.0,SW,19.6,-,N/A,,Overcast,220,2014-01-11 00:55:00
5:15 PM,38.5,30.6,73,30.02,10.0,SW,21.9,25.3,N/A,,Overcast,220,2014-01-11 01:15:00
5:35 PM,38.8,30.4,72,30.01,10.0,SW,18.4,-,N/A,,Overcast,220,2014-01-11 01:35:00
5:55 PM,39.4,30.2,70,30.01,10.0,SW,16.1,24.2,N/A,,Overcast,230,2014-01-11 01:55:00
6:15 PM,39.2,30.0,70,30.01,10.0,SW,16.1,21.9,N/A,,Overcast,230,2014-01-11 02:15:00
6:35 PM,39.4,29.8,69,30.01,10.0,SSW,17.3,26.5,N/A,,Overcast,210,2014-01-11 02:35:00
6:55 PM,39.7,29.7,67,30.01,10.0,SW,21.9,29.9,N/A,,Overcast,220,2014-01-11 02:55:00
7:15 PM,39.7,29.8,68,30.02,10.0,SW,17.3,28.8,N/A,,Overcast,220,2014-01-11 03:15:00
7:35 PM,39.4,30.4,70,30.01,10.0,SSW,16.1,25.3,N/A,,Overcast,210,2014-01-11 03:35:00
7:55 PM,38.7,31.1,74,30.01,10.0,SW,21.9,25.3,N/A,,Overcast,220,2014-01-11 03:55:00
8:15 PM,38.5,31.3,75,30.00,10.0,SW,18.4,23.0,N/A,,Overcast,220,2014-01-11 04:15:00
8:35 PM,38.8,31.5,75,29.99,10.0,SSW,11.5,21.9,N/A,,Overcast,210,2014-01-11 04:35:00
8:55 PM,39.6,31.1,72,29.98,10.0,SSW,16.1,25.3,N/A,,Overcast,200,2014-01-11 04:55:00
9:15 PM,40.1,30.9,70,29.98,10.0,SSW,21.9,27.6,N/A,,Overcast,210,2014-01-11 05:15:00
9:35 PM,39.4,31.6,74,29.98,10.0,SW,19.6,26.5,N/A,,Overcast,230,2014-01-11 05:35:00
9:55 PM,39.2,31.8,75,29.98,10.0,SSW,18.4,28.8,N/A,,Overcast,200,2014-01-11 05:55:00
10:15 PM,39.4,32.0,75,29.97,10.0,South,16.1,31.1,N/A,,Overcast,190,2014-01-11 06:15:00
10:35 PM,40.3,32.0,72,29.95,10.0,SSW,23.0,32.2,N/A,,Overcast,200,2014-01-11 06:35:00
10:55 PM,40.5,32.0,72,29.94,10.0,SSW,24.2,32.2,N/A,,Overcast,200,2014-01-11 06:55:00
11:15 PM,39.9,32.5,75,29.94,10.0,WSW,12.7,20.7,N/A,,Overcast,250,2014-01-11 07:15:00
11:35 PM,39.2,33.1,79,29.93,10.0,South,15.0,20.7,N/A,,Overcast,170,2014-01-11 07:35:00
11:55 PM,40.1,33.3,77,29.92,10.0,SSE,16.1,27.6,N/A,,Overcast,160,2014-01-11 07:55:00